Погода в Излучинске

Россия / Ханты-Мансийский автономный округ - Югра     60°57′10″N   76°53′28″E
темп.,
°C
ветер,
м/с
пор.,
м/с
влажн.,
%
обл.,
%
осадки,
мм/ч
давл.,
гПа
погр.,
м
22 апреля, чт
чт2223:00−11ю22915 0.0 103914
02:00−11ююз22916 0.0 104015
05:00−11ююз22935 0.0 104217
08:00−4ююз34815 0.0 1043173
11:00−1ю4575100 0.0 1044482
14:000ююв358849 0.0 1043271
17:00+1ю368216 0.0 1043133
20:00−2ю478112 0.0 104371
23 апреля, пт
пт2323:00−3ю488484 0.0 1043115
02:00−4ю48885 0.0 1043107
05:00−4ю589019 0.0 1043128
08:000ю5108420 0.0 1043311
11:00+3ю510912 0.0 1042332
14:00+4ю510831 0.0 1040315
17:00+4ю510741 0.0 1040176
20:00+2ю510805 0.0 1040129
24 апреля, сб
сб2423:000ю510874 0.0 1039168
02:00−1ю510897 0.0 1038174
05:00−1ю598976 0.0 1037168
08:00+2ю597984 0.0 1035279
11:00+6ююз5861100 0.0 1034625
14:00+6ююз4865100 0.0 1032262
17:00+6ю4672100 0.0 1031112
20:00+3ю4681100 0.0 103172
25 апреля, вс
вс2523:00+2ю358692 0.0 103059
02:00+1ю338580 0.0 103039
05:00+1ю338482 0.0 102946
08:00+4ю347276 0.0 1029227
11:00+8ю455759 0.0 1028649
14:00+10ю454536 0.0 10271764
17:00+10ю344872 0.0 1026745
20:00+6ююв346444 0.0 102647
26 апреля, пн
пн2623:00+4ю347350 0.0 102649
02:00+3ююв338256 0.0 102539
05:00+2юв468497 0.0 1025107
08:00+5юв5971100 0.0 1024426
11:00+8юв7852100 0.0 10221027
14:00+10ююв7946100 0.0 10211825
17:00+9ююв71058100 0.0 10201369
20:00+7ююв61176100 0.1 1019939